[[{"header":{"parameterUnit":"m.s-1","parameterCategory":1,"la1":30.2991,"la2":30.254,"lo1":-89.0895,"lo2":-89.0444,"dy":0.0017,"dx":0.0017,"nx":28,"ny":28,"refTime":"2024-02-28T03:00:00:Z","depth":0,"parameterNumber":2,"parameterNumberName":"U-component_of_WINDS"},"data":[0,0,0,0,0,0,0,0,0,0,0,0,0,0,0,0,0,0,0,0,0,0,0,0,0,0,0,0,0,0,0,0,0,0,0,0,0,0,0,0,0,0,0,0,0,0,0,0,0,0,0,0,0,0,0,0,0,0,-5.849,-5.849,0,-5.8488,-5.8487,-5.8487,-5.8296,-5.8291,-5.8286,-5.8281,-5.8281,-5.8285,-5.829,0,0,0,0,0,0,0,0,0,0,0,0,0,-5.8331,-5.8335,-5.849,-5.849,-5.849,-5.8488,-5.8487,-5.8487,-5.8296,-5.829,-5.8284,-5.8279,-5.8279,-5.8285,-5.829,0,0,0,0,0,0,0,0,0,0,0,0,0,-5.8372,-5.8336,-5.849,-5.8394,-5.8386,-5.8488,-5.8487,-5.8487,-5.8298,-5.829,-5.8283,-5.8276,-5.8277,-5.8284,-5.8291,-5.8485,0,0,-5.8313,-5.8316,0,0,0,0,0,0,0,0,-5.837,-5.8378,-5.8408,-5.8401,-5.8392,-5.8384,-5.8431,-5.8487,-5.83,-5.8331,-5.8281,-5.8272,-5.8321,-5.8324,-5.834,-5.8485,-5.8485,-5.8313,-5.8317,-5.8321,-5.8322,0,0,0,0,0,0,0,-5.8367,-5.8377,-5.8489,-5.8409,-5.8399,-5.8352,-5.8349,-5.8441,-5.8369,-5.8328,-5.8314,-5.8316,-5.8315,-5.8334,-5.8339,-5.8485,-5.8313,-5.8319,-5.8324,-5.8326,-5.8788,-5.8796,0,0,0,0,0,0,-5.8377,-5.8376,-5.8489,-5.8489,-5.8362,-5.8361,-5.8358,-5.8394,-5.8367,-5.8356,-5.8323,-5.8307,-5.8326,-5.8331,-5.8338,-5.8563,-5.832,-5.8327,-5.8331,-5.878,-5.879,-5.8799,0,0,0,0,0,0,-5.8374,-5.8389,-5.8489,-5.8428,-5.8438,-5.8372,-5.8414,-5.8398,-5.8416,-5.8363,-5.8349,-5.8355,-5.832,-5.8328,-5.845,-5.856,-5.833,-5.8337,-5.8771,-5.8783,-5.8794,-5.9015,0,0,0,0,0,0,-5.8371,-5.8389,-5.8462,-5.8431,-5.8442,-5.8601,-5.8421,-5.8403,-5.8429,-5.8409,-5.839,-5.8379,-5.8315,-5.844,-5.8457,-5.8566,-5.8342,-5.876,-5.8776,-5.8791,-5.8997,-5.9033,-5.9063,0,0,0,0,0,-5.8366,-5.8525,-5.8466,-5.8481,-5.8531,-5.8607,-5.8613,-5.8535,-5.8439,-5.8511,-5.8477,-5.838,-5.8546,-5.8454,-5.8471,-5.8584,-5.8753,-5.8772,-5.8789,-5.8983,-5.9026,-5.9063,0,0,0,0,0,0,-5.857,-5.8519,-5.8454,-5.8608,-5.8613,-5.8575,-5.8664,-5.8584,-5.8617,-5.8597,-5.8499,-5.8497,-5.8634,-5.8621,-5.852,-5.877,-5.8632,-5.8655,-5.8773,-5.8814,-5.8847,-5.8847,-5.8348,0,0,0,0,0,-5.8633,-5.8699,-5.8651,-5.8791,-5.8797,-5.8731,-5.8761,-5.8701,-5.8703,-5.8704,-5.8679,-5.8685,-5.8738,-5.8776,-5.8822,-5.8995,-5.8988,-5.9081,-5.9114,-5.9141,-5.9162,-5.9252,-5.9292,-5.8858,-5.8858,-5.8858,0,0,-5.8764,-5.8744,-5.8792,-5.8832,-5.8829,-5.89,-5.8734,-5.8816,-5.8868,-5.8717,-5.8829,-5.8812,-5.8812,-5.896,-5.9024,-5.8954,-5.928,-5.9164,-5.9187,-5.9192,-5.9275,-5.9316,-5.9352,-5.8871,-5.8868,-5.8866,0,0,-5.9038,-5.903,-5.9146,-5.9146,-5.9144,-5.9099,-5.9127,-5.9101,-5.9083,-5.9194,-5.9082,-5.9143,-5.9237,-5.9242,-5.9257,-5.9534,-5.9446,-5.9552,-5.9724,-5.9813,-5.9847,-5.9877,-5.9976,-6.0012,-5.9572,-5.9573,-5.9573,0,-5.9202,-5.9303,-5.9216,-5.9305,-5.9326,-5.9192,-5.9309,-5.9314,-5.9328,-5.9345,-5.9266,-5.9381,-5.9372,-5.9519,-5.9587,-5.9604,-5.9633,-5.9553,-5.9849,-5.9878,-5.9905,-5.9998,-6.0035,-5.9586,-5.9584,-5.9583,-5.9582,0,-5.9503,-5.9576,-5.967,-5.9685,-5.9717,-5.982,-5.9748,-5.9791,-5.9728,-5.9692,-5.9807,-5.9792,-5.9832,-5.9862,-5.9802,-6.0002,-5.9958,-5.9866,-5.9725,-5.9961,-6.0046,-6.0081,-5.9604,-5.9599,-5.9595,-5.9592,0,0,-5.9906,-5.9872,-5.9908,-5.9913,-5.9901,-5.9955,-6.0053,-6.0091,-6.013,-6.0144,-6.0223,-6.0306,-6.022,-6.0237,-6.0176,-6.0255,-6.0475,-6.0152,-6.0151,-6.0213,-6.0693,-6.0762,-6.0805,-6.0417,-6.0423,-6.0428,-6.0693,0,-6.0171,-6.0334,-6.0258,-6.043,-6.0495,-6.0369,-6.0454,-6.0456,-6.0425,-6.0476,-6.0442,-6.0502,-6.0385,-6.0394,-6.0466,-6.0433,-6.057,-6.0413,-6.0489,-6.0493,-6.0492,-6.0849,-6.0922,-6.1173,-6.0726,-6.0732,-6.0736,0,-6.0502,-6.0529,-6.0707,-6.0682,-6.0707,-6.0784,-6.0814,-6.0865,-6.0865,-6.0836,-6.0856,-6.0777,-6.0871,-6.0732,-6.086,-6.0755,-6.0782,-6.0771,-6.0779,-6.0782,-6.0628,-6.0862,-6.1251,-6.1289,-6.0788,-6.0783,-6.078,0,-6.0777,-6.0859,-6.0975,-6.0983,-6.0958,-6.1015,-6.1008,-6.1,-6.1028,-6.1054,-6.1071,-6.1109,-6.113,-6.1161,-6.1094,-6.1,-6.1232,-6.1088,-6.1211,-6.1213,-6.1265,-6.1263,-6.1663,-6.1285,-6.1284,-6.1283,-6.1283,0,-6.1081,-6.1194,-6.1098,-6.117,-6.1294,-6.1206,-6.1331,-6.131,-6.1305,-6.137,-6.1264,-6.1329,-6.1237,-6.1293,-6.1241,-6.1355,-6.1366,-6.1345,-6.133,-6.1355,-6.1357,-6.137,-6.1351,-6.1293,-6.1291,-6.1289,-6.1287,0,-6.1409,-6.1349,-6.1467,-6.1434,-6.1428,-6.1521,-6.1492,-6.1557,-6.1518,-6.1603,-6.1618,-6.1558,-6.1618,-6.1555,-6.161,-6.1576,-6.1729,-6.1689,-6.1729,-6.1717,-6.1844,-6.1833,-6.2267,-6.2319,-6.1908,-6.1912,-6.1915,0,-6.1606,-6.169,-6.1665,-6.1701,-6.17,-6.1759,-6.1787,-6.1705,-6.1739,-6.1745,-6.181,-6.1861,-6.1896,-6.1998,-6.196,-6.2002,-6.1962,-6.2111,-6.1967,-6.1989,-6.1963,-6.1959,-6.1966,-6.214,-6.2145,-6.2149,-6.2152,0,-6.1962,-6.1928,-6.1972,-6.2006,-6.2042,-6.2066,-6.2081,-6.2117,-6.2031,-6.2075,-6.2134,-6.2162,-6.2218,-6.227,-6.2301,-6.2293,-6.221,-6.2198,-6.2228,-6.2254,-6.2273,-6.2264,-6.1808,-6.2188,-6.2184,-6.2182,-6.218,-6.2178,-6.2229,-6.2298,-6.2292,-6.2344,-6.2347,-6.2363,-6.2423,-6.2392,-6.2439,-6.2478,-6.2427,-6.2501,-6.2499,-6.2531,-6.2534,-6.259,-6.2527,-6.2572,-6.2583,-6.2595,-6.2614,-6.2265,-6.2596,-6.2595,-6.2594,-6.2593,-6.2592,0,-6.2579,-6.2569,-6.2618,-6.2642,-6.2684,-6.26,-6.2613,-6.2653,-6.2719,-6.2724,-6.2761,-6.283,-6.288,-6.2846,-6.2888,-6.294,-6.2903,-6.2954,-6.2949,-6.2948,-6.2668,-6.2637,-6.2984,-6.2984,-6.2983,-6.2983,-6.2983,-6.2983,-6.2766,-6.2878,-6.2844,-6.2956,-6.2944,-6.3015,-6.3029,-6.3044,-6.3047,-6.3128,-6.3169,-6.3146,-6.3136,-6.3176,-6.3218,-6.3207,-6.3227,-6.3293,-6.3268,-6.3007,-6.2968,-6.2931,-6.2902,-6.3298,-6.3298,-6.3543,-6.3545,-6.3547]},{"header":{"parameterUnit":"m.s-1","parameterCategory":1,"la1":30.2991,"la2":30.254,"lo1":-89.0895,"lo2":-89.0444,"dy":0.0017,"dx":0.0017,"nx":28,"ny":28,"refTime":"2024-02-28T03:00:00:Z","depth":0,"parameterNumber":3,"parameterNumberName":"V-component_of_WINDS"},"data":[0,0,0,0,0,0,0,0,0,0,0,0,0,0,0,0,0,0,0,0,0,0,0,0,0,0,0,0,0,0,0,0,0,0,0,0,0,0,0,0,0,0,0,0,0,0,0,0,0,0,0,0,0,0,0,0,0,0,-1.3407,-1.3408,0,-1.3426,-1.3426,-1.3427,-1.3447,-1.3447,-1.3448,-1.3448,-1.3464,-1.3465,-1.3465,0,0,0,0,0,0,0,0,0,0,0,0,0,-1.3385,-1.3385,-1.3407,-1.3408,-1.3408,-1.3426,-1.3426,-1.3427,-1.3447,-1.3447,-1.3448,-1.3448,-1.3464,-1.3465,-1.3465,0,0,0,0,0,0,0,0,0,0,0,0,0,-1.3398,-1.3385,-1.3407,-1.342,-1.3422,-1.3426,-1.3426,-1.3427,-1.3447,-1.3447,-1.3448,-1.3448,-1.3464,-1.3465,-1.3465,-1.3457,0,0,-1.3466,-1.3466,0,0,0,0,0,0,0,0,-1.3397,-1.3399,-1.3418,-1.3419,-1.3421,-1.3435,-1.3424,-1.3437,-1.3447,-1.3437,-1.3448,-1.3448,-1.3454,-1.3455,-1.3458,-1.3458,-1.3459,-1.3466,-1.3466,-1.3466,-1.3466,0,0,0,0,0,0,0,-1.3396,-1.3398,-1.3415,-1.3418,-1.342,-1.3424,-1.3426,-1.3427,-1.3443,-1.3438,-1.344,-1.3442,-1.3455,-1.3457,-1.3458,-1.3459,-1.3466,-1.3466,-1.3466,-1.3466,-1.3451,-1.3451,0,0,0,0,0,0,-1.3394,-1.3397,-1.3414,-1.3415,-1.341,-1.3424,-1.3426,-1.343,-1.3443,-1.3445,-1.3441,-1.3443,-1.3457,-1.3458,-1.3459,-1.3449,-1.3466,-1.3466,-1.3466,-1.3452,-1.3451,-1.345,0,0,0,0,0,0,-1.3393,-1.3395,-1.3413,-1.3407,-1.3409,-1.3424,-1.3427,-1.343,-1.3433,-1.3445,-1.3448,-1.3441,-1.3457,-1.3458,-1.3457,-1.345,-1.3466,-1.3466,-1.3452,-1.3451,-1.3451,-1.3431,0,0,0,0,0,0,-1.3393,-1.3395,-1.3393,-1.3407,-1.341,-1.3413,-1.3427,-1.343,-1.3433,-1.3435,-1.3446,-1.3448,-1.3458,-1.3457,-1.3457,-1.3451,-1.3467,-1.3453,-1.3452,-1.3451,-1.3432,-1.3429,-1.3427,0,0,0,0,0,-1.3392,-1.3387,-1.3393,-1.3395,-1.3408,-1.3412,-1.3414,-1.3426,-1.3433,-1.343,-1.3438,-1.3448,-1.3451,-1.3456,-1.3457,-1.3451,-1.3454,-1.3452,-1.3451,-1.3433,-1.343,-1.3427,0,0,0,0,0,0,-1.3373,-1.3389,-1.3396,-1.3396,-1.3403,-1.3416,-1.3414,-1.3422,-1.3426,-1.3428,-1.3441,-1.3443,-1.344,-1.3445,-1.3451,-1.3442,-1.3453,-1.3452,-1.3439,-1.3436,-1.3434,-1.3432,-1.3467,0,0,0,0,0,-1.3368,-1.3372,-1.3385,-1.3384,-1.3387,-1.3399,-1.3402,-1.341,-1.3417,-1.342,-1.3428,-1.3433,-1.3435,-1.3436,-1.3439,-1.3433,-1.3434,-1.3428,-1.3426,-1.3424,-1.3422,-1.3417,-1.3414,-1.3446,-1.3446,-1.3447,0,0,-1.336,-1.3369,-1.337,-1.338,-1.3386,-1.3387,-1.3402,-1.3403,-1.3404,-1.342,-1.3419,-1.3424,-1.3431,-1.3427,-1.3425,-1.3431,-1.3414,-1.3422,-1.342,-1.342,-1.3416,-1.3413,-1.341,-1.3446,-1.3446,-1.3446,0,0,-1.3344,-1.3353,-1.3351,-1.3357,-1.3366,-1.3374,-1.3373,-1.3385,-1.3389,-1.3388,-1.34,-1.3399,-1.3403,-1.3407,-1.3409,-1.3392,-1.3401,-1.3393,-1.3379,-1.3374,-1.3372,-1.3369,-1.3362,-1.3359,-1.3391,-1.3391,-1.3391,0,-1.3332,-1.3336,-1.3349,-1.3349,-1.3352,-1.3367,-1.3364,-1.3368,-1.3377,-1.3378,-1.3385,-1.3388,-1.3394,-1.3389,-1.3385,-1.3387,-1.3385,-1.3392,-1.3371,-1.3369,-1.3367,-1.336,-1.3357,-1.339,-1.339,-1.3391,-1.3391,0,-1.332,-1.3322,-1.3319,-1.3328,-1.333,-1.3329,-1.334,-1.3341,-1.3348,-1.3355,-1.3352,-1.3359,-1.3362,-1.3362,-1.3369,-1.3358,-1.3361,-1.3369,-1.338,-1.3363,-1.3356,-1.3353,-1.3389,-1.3389,-1.3389,-1.339,0,0,-1.3295,-1.3309,-1.3308,-1.331,-1.332,-1.3321,-1.3319,-1.3323,-1.3322,-1.3327,-1.3325,-1.3326,-1.3333,-1.3335,-1.3343,-1.3338,-1.3322,-1.3347,-1.3347,-1.3341,-1.3307,-1.33,-1.3297,-1.3327,-1.3327,-1.3327,-1.3306,0,-1.3281,-1.328,-1.329,-1.3285,-1.3286,-1.3298,-1.3296,-1.33,-1.3306,-1.3306,-1.3312,-1.3312,-1.3322,-1.3323,-1.3319,-1.3325,-1.3315,-1.3327,-1.3323,-1.3323,-1.3321,-1.3294,-1.3287,-1.3268,-1.3304,-1.3303,-1.3303,0,-1.3265,-1.3268,-1.3264,-1.3271,-1.3272,-1.327,-1.3272,-1.3273,-1.3277,-1.3281,-1.3283,-1.3291,-1.3288,-1.3298,-1.3292,-1.33,-1.3299,-1.3301,-1.33,-1.33,-1.3312,-1.3292,-1.3262,-1.3259,-1.3299,-1.33,-1.33,0,-1.3245,-1.3249,-1.3246,-1.3248,-1.3257,-1.3255,-1.3259,-1.3264,-1.3264,-1.3266,-1.3266,-1.3267,-1.3267,-1.3267,-1.3274,-1.3282,-1.3267,-1.3278,-1.3268,-1.3268,-1.3265,-1.3265,-1.3233,-1.3265,-1.3265,-1.3266,-1.3266,0,-1.3228,-1.3224,-1.3237,-1.3235,-1.323,-1.3241,-1.3235,-1.324,-1.3243,-1.3241,-1.3252,-1.3249,-1.3259,-1.3257,-1.3263,-1.3256,-1.3256,-1.3258,-1.3259,-1.3257,-1.3256,-1.3256,-1.3257,-1.3265,-1.3265,-1.3265,-1.3265,0,-1.3206,-1.3214,-1.3212,-1.322,-1.3221,-1.3217,-1.3224,-1.3221,-1.3226,-1.3223,-1.3223,-1.3231,-1.3229,-1.3236,-1.3235,-1.3238,-1.3228,-1.3232,-1.3226,-1.3227,-1.3216,-1.3217,-1.3183,-1.3178,-1.3214,-1.3214,-1.3214,0,-1.3194,-1.3191,-1.3199,-1.3198,-1.3201,-1.32,-1.32,-1.3209,-1.3209,-1.3212,-1.3209,-1.3207,-1.3207,-1.3202,-1.3207,-1.3205,-1.3208,-1.3197,-1.3208,-1.3205,-1.3206,-1.3206,-1.3205,-1.3194,-1.3194,-1.3193,-1.3193,0,-1.3172,-1.3175,-1.3176,-1.3177,-1.3177,-1.3178,-1.318,-1.3179,-1.3188,-1.3187,-1.3184,-1.3184,-1.3182,-1.3179,-1.3179,-1.318,-1.3187,-1.3189,-1.3186,-1.3183,-1.318,-1.318,-1.3219,-1.319,-1.319,-1.3191,-1.3191,-1.3191,-1.3154,-1.3151,-1.3155,-1.3154,-1.3156,-1.3157,-1.3154,-1.3159,-1.3157,-1.3157,-1.3162,-1.3158,-1.3159,-1.3159,-1.316,-1.3155,-1.3161,-1.3157,-1.3156,-1.3155,-1.3152,-1.3181,-1.3155,-1.3155,-1.3156,-1.3156,-1.3156,0,-1.3131,-1.3134,-1.3133,-1.3135,-1.3133,-1.314,-1.3142,-1.314,-1.3136,-1.3137,-1.3136,-1.3132,-1.3129,-1.3133,-1.313,-1.3125,-1.3128,-1.3124,-1.3124,-1.3124,-1.3149,-1.3151,-1.3122,-1.3122,-1.3122,-1.3122,-1.3122,-1.3122,-1.3119,-1.3114,-1.3117,-1.3112,-1.3115,-1.3111,-1.3111,-1.3111,-1.3112,-1.3107,-1.3104,-1.3107,-1.3108,-1.3105,-1.3101,-1.3102,-1.31,-1.3094,-1.3096,-1.3119,-1.3123,-1.3126,-1.3128,-1.3094,-1.3094,-1.3072,-1.3072,-1.3071]}]]